sat.trackr.live / text

‹ back to catalog

STARLINK-11601 [DTC]

NORAD 63110 · 2025-039G

PAYLOAD ACTIVE UNKNOWN

§ Identity

Operator
Country
US
Launch date
2025-02-27
Launch site
AFETR
Launch vehicle
Mass (kg)
RCS (m²)

Purposes: comms

External: N2YO · Heavens-Above · Gunter

§ Orbital elements

Epoch: 2026-09-20T21:04:02.941248Z

Period
91.67 min
Inclination
42.9998°
Eccentricity
0.0002150
Mean motion
15.70833037 rev/d
Perigee alt
355.1 km
Apogee alt
358.0 km
Semi-major
6,734.7 km
B*
1.0054e-3
RAAN
140.2947°
Arg perigee
207.6078°
Mean anomaly
152.4676°
Rev number
9,031

§ Raw data

STARLINK-11601 [DTC]1 63110U 25039G   26263.87781182  .00130568  00000+0  10054-2 0  99952 63110  42.9998 140.2947 0002150 207.6078 152.4676 15.70833037 90310

JSON: /api/v1/satellites/63110 · /tle

For live sub-satellite position, see the globe view (requires WebGL).

§ Visibility from observer

Set your observer location to see the next 7 days of passes ≥ 10°. The values pass through the URL so the page stays shareable.

No JS? Fill the form by hand. The geolocation button needs JavaScript.